Retour au catalogue

QIANFAN-5

ActifCommunicationsPO
NORAD 60383·PAYLOAD·🇨🇳 China

Lancé Aug 6, 2024 depuis Taiyuan Satellite Launch Center

Loading…

Prochains Passages (prochaines 24 heures)

TLE

FraisSource: Space-Track

Époque: Sep 14, 2026, 13:33 UTC

1 60383U 24140E   26257.56475422  .00000007  00000-0 -82294-5 0  9996
2 60383  88.9643 270.5828 0016827 129.5752 230.6888 13.51031181104540

Suivez QIANFAN-5 en temps réel avec AllMySat

Download on the App Store